owner,sensor,date,latitude,longitude,vertical_datum,wind_speed,wind_to_direction,wind_speed_of_gust,qcFlag 
TABS,ioos:station:wmo:42046:1,2013-06-01T00:00:00Z,27.8903,-94.0367,4.0,4.310568408,119.0033161,6.16,'11111222,11111222,11111222' 
TABS,ioos:station:wmo:42046:1,2013-06-01T00:30:00Z,27.8903,-94.0367,4.0,4.942974813,120.2484437,7.09,'11111222,11111222,11111222' 
TABS,ioos:station:wmo:42046:1,2013-06-01T01:00:00Z,27.8903,-94.0367,4.0,4.497221364,118.5599746,6.31,'11111222,11111222,11111222' 
TABS,ioos:station:wmo:42046:1,2013-06-01T01:30:00Z,27.8903,-94.0367,4.0,5.453888521,119.4325008,7.12,'11111222,11111222,11111222' 
TABS,ioos:station:wmo:42046:1,2013-06-01T02:00:00Z,27.8903,-94.0367,4.0,6.193109074,119.504255,7.89,'11111222,11111222,11111222' 
TABS,ioos:station:wmo:42046:1,2013-06-01T02:30:00Z,27.8903,-94.0367,4.0,6.176026231,120.3435988,7.97,'11111222,11111222,11111222' 
TABS,ioos:station:wmo:42046:1,2013-06-01T03:00:00Z,27.8903,-94.0367,4.0,6.052974475,120.0387529,7.8,'11111222,11111222,11111222' 
TABS,ioos:station:wmo:42046:1,2013-06-01T03:30:00Z,27.8903,-94.0367,4.0,5.652610017,121.1031719,7.72,'11111222,11111222,11111222' 
TABS,ioos:station:wmo:42046:1,2013-06-01T04:00:00Z,27.8903,-94.0367,4.0,4.262229464,117.2267154,5.94,'11111222,11111222,11111222' 
TABS,ioos:station:wmo:42046:1,2013-06-01T04:30:00Z,27.8903,-94.0367,4.0,3.445359198,114.705815,5.2,'11111222,11111222,11111222' 
TABS,ioos:station:wmo:42046:1,2013-06-01T05:00:00Z,27.8903,-94.0367,4.0,2.247220505,110.8548302,3.99,'11111222,11111222,11111222' 
TABS,ioos:station:wmo:42046:1,2013-06-01T05:30:00Z,27.8903,-94.0367,4.0,2.505394181,112.7785564,4.19,'11111222,11111222,11111222' 
TABS,ioos:station:wmo:42046:1,2013-06-01T06:00:00Z,27.8903,-94.0367,4.0,1.568183663,52.25286196,4.49,'11111222,11111222,11111222' 
TABS,ioos:station:wmo:42046:1,2013-06-01T06:30:00Z,27.8903,-94.0367,4.0,4.639709043,273.7072785,6.29,'11111222,11111222,11111222' 
TABS,ioos:station:wmo:42046:1,2013-06-01T07:00:00Z,27.8903,-94.0367,4.0,0.940478602,144.958363,2.78,'11111222,11111222,11111222' 
TABS,ioos:station:wmo:42046:1,2013-06-01T07:30:00Z,27.8903,-94.0367,4.0,5.044333454,233.7889913,6.41,'11111222,11111222,11111222' 
TABS,ioos:station:wmo:42046:1,2013-06-01T08:00:00Z,27.8903,-94.0367,4.0,4.933406531,227.5467268,6.28,'11111222,11111222,11111222' 
TABS,ioos:station:wmo:42046:1,2013-06-01T08:30:00Z,27.8903,-94.0367,4.0,5.090746507,230.1801116,6.61,'11111222,11111222,11111222' 
TABS,ioos:station:wmo:42046:1,2013-06-01T09:00:00Z,27.8903,-94.0367,4.0,5.07,225.2398346,6.17,'11111222,11111222,11111222' 
TABS,ioos:station:wmo:42046:1,2013-06-01T09:30:00Z,27.8903,-94.0367,4.0,5.096194659,227.5449037,6.66,'11111222,11111222,11111222' 
TABS,ioos:station:wmo:42046:1,2013-06-01T10:00:00Z,27.8903,-94.0367,4.0,4.632591068,220.3599408,5.88,'11111222,11111222,11111222' 
TABS,ioos:station:wmo:42046:1,2013-06-01T10:30:00Z,27.8903,-94.0367,4.0,5.161898875,224.8431313,7.13,'11111222,11111222,11111222' 
TABS,ioos:station:wmo:42046:1,2013-06-01T11:00:00Z,27.8903,-94.0367,4.0,4.766424236,218.6974746,6.28,'11111222,11111222,11111222' 
TABS,ioos:station:wmo:42046:1,2013-06-01T11:30:00Z,27.8903,-94.0367,4.0,5.325607947,218.9791676,6.79,'11111222,11111222,11111222' 
TABS,ioos:station:wmo:42046:1,2013-06-01T12:00:00Z,27.8903,-94.0367,4.0,5.192090138,223.4393022,6.74,'11111222,11111222,11111222' 
TABS,ioos:station:wmo:42046:1,2013-06-01T12:30:00Z,27.8903,-94.0367,4.0,5.262774933,226.5399399,6.67,'11111222,11111222,11111222' 
TABS,ioos:station:wmo:42046:1,2013-06-01T13:00:00Z,27.8903,-94.0367,4.0,5.536180994,229.0283595,7.72,'11111222,11111222,11111222' 
TABS,ioos:station:wmo:42046:1,2013-06-01T13:30:00Z,27.8903,-94.0367,4.0,4.926865129,230.1051837,6.6,'11111222,11111222,11111222' 
TABS,ioos:station:wmo:42046:1,2013-06-01T14:00:00Z,27.8903,-94.0367,4.0,5.221685552,222.982394,6.47,'11111222,11111222,11111222' 
TABS,ioos:station:wmo:42046:1,2013-06-01T14:30:00Z,27.8903,-94.0367,4.0,5.118564252,216.0192698,6.72,'11111222,11111222,11111222' 
TABS,ioos:station:wmo:42046:1,2013-06-01T15:00:00Z,27.8903,-94.0367,4.0,4.952908237,221.3166275,6.4,'11111222,11111222,11111222' 
TABS,ioos:station:wmo:42046:1,2013-06-01T15:30:00Z,27.8903,-94.0367,4.0,4.752430957,233.9018004,6.29,'11111222,11111222,11111222' 
TABS,ioos:station:wmo:42046:1,2013-06-01T16:00:00Z,27.8903,-94.0367,4.0,4.505219196,221.5808454,5.85,'11111222,11111222,11111222' 
TABS,ioos:station:wmo:42046:1,2013-06-01T16:30:00Z,27.8903,-94.0367,4.0,4.459439427,211.8012329,5.48,'11111222,11111222,11111222' 
TABS,ioos:station:wmo:42046:1,2013-06-01T17:00:00Z,27.8903,-94.0367,4.0,4.62481351,221.7571121,5.91,'11111222,11111222,11111222' 
TABS,ioos:station:wmo:42046:1,2013-06-01T17:30:00Z,27.8903,-94.0367,4.0,3.074752023,144.3976302,4.16,'11111222,11111222,11111222' 
TABS,ioos:station:wmo:42046:1,2013-06-01T18:00:00Z,27.8903,-94.0367,4.0,6.012952686,236.2571555,8.01,'11111222,11111222,11111222' 
TABS,ioos:station:wmo:42046:1,2013-06-01T18:30:00Z,27.8903,-94.0367,4.0,4.468646327,215.8955257,6.1,'11111222,11111222,11111222' 
TABS,ioos:station:wmo:42046:1,2013-06-01T19:00:00Z,27.8903,-94.0367,4.0,4.619794368,223.1581542,5.64,'11111222,11111222,11111222' 
TABS,ioos:station:wmo:42046:1,2013-06-01T19:30:00Z,27.8903,-94.0367,4.0,4.665029475,215.6663025,6.11,'11111222,11111222,11111222' 
TABS,ioos:station:wmo:42046:1,2013-06-01T20:00:00Z,27.8903,-94.0367,4.0,4.128159396,210.4164248,5.72,'11111222,11111222,11111222' 
TABS,ioos:station:wmo:42046:1,2013-06-01T20:30:00Z,27.8903,-94.0367,4.0,3.634350011,210.233881,5.48,'11111222,11111222,11111222' 
TABS,ioos:station:wmo:42046:1,2013-06-01T21:00:00Z,27.8903,-94.0367,4.0,3.219937888,206.5651995,5.01,'11111222,11111222,11111222' 
TABS,ioos:station:wmo:42046:1,2013-06-01T21:30:00Z,27.8903,-94.0367,4.0,3.937067437,208.192479,6.45,'11111222,11111222,11111222' 
TABS,ioos:station:wmo:42046:1,2013-06-01T22:00:00Z,27.8903,-94.0367,4.0,3.087798569,204.490178,4.88,'11111222,11111222,11111222' 
TABS,ioos:station:wmo:42046:1,2013-06-01T22:30:00Z,27.8903,-94.0367,4.0,3.028811648,196.1014752,4.83,'11111222,11111222,11111222' 
TABS,ioos:station:wmo:42046:1,2013-06-01T23:00:00Z,27.8903,-94.0367,4.0,3.0,196.2603771,4.75,'11111222,11111222,11111222' 
TABS,ioos:station:wmo:42046:1,2013-06-01T23:30:00Z,27.8903,-94.0367,4.0,2.596247292,176.0246661,4.34,'11111222,11111222,11111222' 
TABS,ioos:station:wmo:42046:1,2013-06-02T00:00:00Z,27.8903,-94.0367,4.0,2.583737603,162.196443,3.96,'11111222,11111222,11111222' 
TABS,ioos:station:wmo:42046:1,2013-06-02T00:30:00Z,27.8903,-94.0367,4.0,2.748035662,161.7631025,3.96,'11111222,11111222,11111222' 
TABS,ioos:station:wmo:42046:1,2013-06-02T01:00:00Z,27.8903,-94.0367,4.0,2.814427118,172.4459434,4.38,'11111222,11111222,11111222' 
TABS,ioos:station:wmo:42046:1,2013-06-02T01:30:00Z,27.8903,-94.0367,4.0,3.07902582,191.2371284,5.27,'11111222,11111222,11111222' 
TABS,ioos:station:wmo:42046:1,2013-06-02T02:00:00Z,27.8903,-94.0367,4.0,2.504555849,161.8546742,3.82,'11111222,11111222,11111222' 
TABS,ioos:station:wmo:42046:1,2013-06-02T02:30:00Z,27.8903,-94.0367,4.0,2.465197761,176.2789059,4.22,'11111222,11111222,11111222' 
TABS,ioos:station:wmo:42046:1,2013-06-02T03:00:00Z,27.8903,-94.0367,4.0,3.310589071,205.0170454,5.74,'11111222,11111222,11111222' 
TABS,ioos:station:wmo:42046:1,2013-06-02T03:30:00Z,27.8903,-94.0367,4.0,3.698783584,205.80315,6.41,'11111222,11111222,11111222' 
TABS,ioos:station:wmo:42046:1,2013-06-02T04:00:00Z,27.8903,-94.0367,4.0,5.800086206,148.968761,9.35,'11111222,11111222,11111222' 
TABS,ioos:station:wmo:42046:1,2013-06-02T04:30:00Z,27.8903,-94.0367,4.0,7.672874298,141.5620704,8.86,'11111222,11111222,11111222' 
TABS,ioos:station:wmo:42046:1,2013-06-02T05:00:00Z,27.8903,-94.0367,4.0,6.018936783,141.3404926,6.81,'11111222,11111222,11111222' 
TABS,ioos:station:wmo:42046:1,2013-06-02T05:30:00Z,27.8903,-94.0367,4.0,5.875031915,147.2299028,6.71,'11111222,11111222,11111222' 
TABS,ioos:station:wmo:42046:1,2013-06-02T06:00:00Z,27.8903,-94.0367,4.0,6.12249949,149.0365263,7.27,'11111222,11111222,11111222' 
TABS,ioos:station:wmo:42046:1,2013-06-02T06:30:00Z,27.8903,-94.0367,4.0,6.054370322,149.750656,7.51,'11111222,11111222,11111222' 
TABS,ioos:station:wmo:42046:1,2013-06-02T07:00:00Z,27.8903,-94.0367,4.0,5.849581182,153.6104369,6.81,'11111222,11111222,11111222' 
TABS,ioos:station:wmo:42046:1,2013-06-02T07:30:00Z,27.8903,-94.0367,4.0,5.244206327,150.4044646,6.15,'11111222,11111222,11111222' 
TABS,ioos:station:wmo:42046:1,2013-06-02T08:00:00Z,27.8903,-94.0367,4.0,4.771938809,152.9519519,5.67,'11111222,11111222,11111222' 
TABS,ioos:station:wmo:42046:1,2013-06-02T08:30:00Z,27.8903,-94.0367,4.0,3.666987865,145.4434853,4.27,'11111222,11111222,11111222' 
TABS,ioos:station:wmo:42046:1,2013-06-02T09:00:00Z,27.8903,-94.0367,4.0,4.294380048,140.0068225,4.93,'11111222,11111222,11111222' 
TABS,ioos:station:wmo:42046:1,2013-06-02T09:30:00Z,27.8903,-94.0367,4.0,3.132554868,135.3883164,3.84,'11111222,11111222,11111222' 
TABS,ioos:station:wmo:42046:1,2013-06-02T10:00:00Z,27.8903,-94.0367,4.0,4.054984587,132.7017244,4.71,'11111222,11111222,11111222' 
TABS,ioos:station:wmo:42046:1,2013-06-02T10:30:00Z,27.8903,-94.0367,4.0,4.138647122,141.0810424,4.57,'11111222,11111222,11111222' 
TABS,ioos:station:wmo:42046:1,2013-06-02T11:00:00Z,27.8903,-94.0367,4.0,4.942630878,146.8889459,5.94,'11111222,11111222,11111222' 
TABS,ioos:station:wmo:42046:1,2013-06-02T11:30:00Z,27.8903,-94.0367,4.0,4.138417572,148.537903,4.84,'11111222,11111222,11111222' 
TABS,ioos:station:wmo:42046:1,2013-06-02T12:00:00Z,27.8903,-94.0367,4.0,4.004122875,155.0352424,4.7,'11111222,11111222,11111222' 
TABS,ioos:station:wmo:42046:1,2013-06-02T12:30:00Z,27.8903,-94.0367,4.0,3.580516722,167.0895824,4.17,'11111222,11111222,11111222' 
TABS,ioos:station:wmo:42046:1,2013-06-02T13:00:00Z,27.8903,-94.0367,4.0,1.928419042,174.6443979,2.34,'11111222,11111222,11111222' 
TABS,ioos:station:wmo:42046:1,2013-06-02T13:30:00Z,27.8903,-94.0367,4.0,1.250039999,179.5418551,2.0,'11111222,11111222,11111222' 
TABS,ioos:station:wmo:42046:1,2013-06-02T14:00:00Z,27.8903,-94.0367,4.0,0.718470598,325.2038446,1.17,'11111222,11111222,11111222' 
TABS,ioos:station:wmo:42046:1,2013-06-02T14:30:00Z,27.8903,-94.0367,4.0,1.342385936,326.5465583,1.74,'11111222,11111222,11111222' 
TABS,ioos:station:wmo:42046:1,2013-06-02T15:00:00Z,27.8903,-94.0367,4.0,1.204865138,341.1137463,1.73,'11111222,11111222,11111222' 
TABS,ioos:station:wmo:42046:1,2013-06-02T15:30:00Z,27.8903,-94.0367,4.0,2.250777643,337.5366296,2.98,'11111222,11111222,11111222' 
TABS,ioos:station:wmo:42046:1,2013-06-02T16:00:00Z,27.8903,-94.0367,4.0,2.746124542,325.3838912,3.49,'11111222,11111222,11111222' 
TABS,ioos:station:wmo:42046:1,2013-06-02T16:30:00Z,27.8903,-94.0367,4.0,4.212362757,329.7825862,4.94,'11111222,11111222,11111222' 
TABS,ioos:station:wmo:42046:1,2013-06-02T17:00:00Z,27.8903,-94.0367,4.0,8.462275108,335.4942536,12.7,'11111222,11111222,11111222' 
TABS,ioos:station:wmo:42046:1,2013-06-02T17:30:00Z,27.8903,-94.0367,4.0,9.800249997,0.409037192,11.41,'11111222,11111222,11111222' 
TABS,ioos:station:wmo:42046:1,2013-06-02T18:00:00Z,27.8903,-94.0367,4.0,6.859453331,356.9913992,7.9,'11111222,11111222,11111222' 
TABS,ioos:station:wmo:42046:1,2013-06-02T18:30:00Z,27.8903,-94.0367,4.0,5.918656942,3.099065448,7.1,'11111222,11111222,11111222' 
TABS,ioos:station:wmo:42046:1,2013-06-02T19:00:00Z,27.8903,-94.0367,4.0,4.101219331,8.129872884,4.91,'11111222,11111222,11111222' 
TABS,ioos:station:wmo:42046:1,2013-06-02T19:30:00Z,27.8903,-94.0367,4.0,2.386063704,23.98660361,3.07,'11111222,11111222,11111222' 
TABS,ioos:station:wmo:42046:1,2013-06-02T20:00:00Z,27.8903,-94.0367,4.0,1.400035714,27.66296318,2.09,'11111222,11111222,11111222' 
TABS,ioos:station:wmo:42046:1,2013-06-02T20:30:00Z,27.8903,-94.0367,4.0,2.358664877,54.49022276,3.25,'11111222,11111222,11111222' 
TABS,ioos:station:wmo:42046:1,2013-06-02T21:00:00Z,27.8903,-94.0367,4.0,2.745906044,42.63831518,3.63,'11111222,11111222,11111222' 
TABS,ioos:station:wmo:42046:1,2013-06-02T21:30:00Z,27.8903,-94.0367,4.0,4.105459779,17.28717014,4.99,'11111222,11111222,11111222' 
TABS,ioos:station:wmo:42046:1,2013-06-02T22:00:00Z,27.8903,-94.0367,4.0,5.598080028,32.52585444,6.63,'11111222,11111222,11111222' 
TABS,ioos:station:wmo:42046:1,2013-06-02T22:30:00Z,27.8903,-94.0367,4.0,4.615246472,63.49010905,5.76,'11111222,11111222,11111222' 
TABS,ioos:station:wmo:42046:1,2013-06-02T23:00:00Z,27.8903,-94.0367,4.0,5.800982675,35.03218522,6.79,'11111222,11111222,11111222' 
TABS,ioos:station:wmo:42046:1,2013-06-02T23:30:00Z,27.8903,-94.0367,4.0,6.517860078,19.07406699,7.86,'11111222,11111222,11111222' 
TABS,ioos:station:wmo:42046:1,2013-06-03T00:00:00Z,27.8903,-94.0367,4.0,6.292932544,18.43469526,7.4,'11111222,11111222,11111222' 
TABS,ioos:station:wmo:42046:1,2013-06-03T00:30:00Z,27.8903,-94.0367,4.0,4.684378294,24.86884139,5.45,'11111222,11111222,11111222' 
TABS,ioos:station:wmo:42046:1,2013-06-03T01:00:00Z,27.8903,-94.0367,4.0,5.56752189,34.83154333,6.64,'11111222,11111222,11111222' 
TABS,ioos:station:wmo:42046:1,2013-06-03T01:30:00Z,27.8903,-94.0367,4.0,5.222690877,33.20294437,6.24,'11111222,11111222,11111222' 
TABS,ioos:station:wmo:42046:1,2013-06-03T02:00:00Z,27.8903,-94.0367,4.0,4.767598976,43.46989717,5.49,'11111222,11111222,11111222' 
TABS,ioos:station:wmo:42046:1,2013-06-03T02:30:00Z,27.8903,-94.0367,4.0,4.618971747,43.50840405,5.71,'11111222,11111222,11111222' 
TABS,ioos:station:wmo:42046:1,2013-06-03T03:00:00Z,27.8903,-94.0367,4.0,4.09538765,58.98790867,4.89,'11111222,11111222,11111222' 
TABS,ioos:station:wmo:42046:1,2013-06-03T03:30:00Z,27.8903,-94.0367,4.0,4.20729129,45.09597942,4.99,'11111222,11111222,11111222' 
TABS,ioos:station:wmo:42046:1,2013-06-03T04:00:00Z,27.8903,-94.0367,4.0,4.582684803,49.60179502,5.49,'11111222,11111222,11111222' 
TABS,ioos:station:wmo:42046:1,2013-06-03T04:30:00Z,27.8903,-94.0367,4.0,4.215210552,43.84623656,4.98,'11111222,11111222,11111222' 
TABS,ioos:station:wmo:42046:1,2013-06-03T05:00:00Z,27.8903,-94.0367,4.0,3.821060062,54.47941538,4.57,'11111222,11111222,11111222' 
TABS,ioos:station:wmo:42046:1,2013-06-03T05:30:00Z,27.8903,-94.0367,4.0,3.58987465,54.98149026,4.43,'11111222,11111222,11111222' 
TABS,ioos:station:wmo:42046:1,2013-06-03T06:00:00Z,27.8903,-94.0367,4.0,3.202577087,64.4747598,3.95,'11111222,11111222,11111222' 
TABS,ioos:station:wmo:42046:1,2013-06-03T06:30:00Z,27.8903,-94.0367,4.0,3.714969717,49.14745115,4.63,'11111222,11111222,11111222' 
TABS,ioos:station:wmo:42046:1,2013-06-03T07:00:00Z,27.8903,-94.0367,4.0,3.556754138,45.11359201,4.27,'11111222,11111222,11111222' 
TABS,ioos:station:wmo:42046:1,2013-06-03T07:30:00Z,27.8903,-94.0367,4.0,3.303407332,39.47215709,4.16,'11111222,11111222,11111222' 
TABS,ioos:station:wmo:42046:1,2013-06-03T08:00:00Z,27.8903,-94.0367,4.0,3.132921959,38.25964398,4.32,'11111222,11111222,11111222' 
TABS,ioos:station:wmo:42046:1,2013-06-03T08:30:00Z,27.8903,-94.0367,4.0,3.353356527,39.43336519,4.38,'11111222,11111222,11111222' 
TABS,ioos:station:wmo:42046:1,2013-06-03T09:00:00Z,27.8903,-94.0367,4.0,3.819070568,20.38019532,4.29,'11111222,11111222,11111222' 
TABS,ioos:station:wmo:42046:1,2013-06-03T09:30:00Z,27.8903,-94.0367,4.0,3.55101394,26.05966635,4.27,'11111222,11111222,11111222' 
TABS,ioos:station:wmo:42046:1,2013-06-03T10:00:00Z,27.8903,-94.0367,4.0,3.417601498,20.55578669,4.12,'11111222,11111222,11111222' 
TABS,ioos:station:wmo:42046:1,2013-06-03T10:30:00Z,27.8903,-94.0367,4.0,3.278322742,25.86132035,4.0,'11111222,11111222,11111222' 
TABS,ioos:station:wmo:42046:1,2013-06-03T11:00:00Z,27.8903,-94.0367,4.0,2.942872746,34.33776927,3.48,'11111222,11111222,11111222' 
TABS,ioos:station:wmo:42046:1,2013-06-03T11:30:00Z,27.8903,-94.0367,4.0,3.059297305,16.71693325,3.63,'11111222,11111222,11111222' 
TABS,ioos:station:wmo:42046:1,2013-06-03T12:00:00Z,27.8903,-94.0367,4.0,4.309767975,3.858071874,5.4,'11111222,11111222,11111222' 
TABS,ioos:station:wmo:42046:1,2013-06-03T12:30:00Z,27.8903,-94.0367,4.0,3.813200755,6.323373457,4.65,'11111222,11111222,11111222' 
TABS,ioos:station:wmo:42046:1,2013-06-03T13:00:00Z,27.8903,-94.0367,4.0,3.630385654,8.553946661,4.4,'11111222,11111222,11111222' 
TABS,ioos:station:wmo:42046:1,2013-06-03T13:30:00Z,27.8903,-94.0367,4.0,3.832401336,13.27452062,4.69,'11111222,11111222,11111222' 
TABS,ioos:station:wmo:42046:1,2013-06-03T14:00:00Z,27.8903,-94.0367,4.0,4.63492179,10.31566858,5.54,'11111222,11111222,11111222' 
TABS,ioos:station:wmo:42046:1,2013-06-03T14:30:00Z,27.8903,-94.0367,4.0,4.915495906,5.837950511,6.37,'11111222,11111222,11111222' 
TABS,ioos:station:wmo:42046:1,2013-06-03T15:00:00Z,27.8903,-94.0367,4.0,5.427973839,13.85679187,6.42,'11111222,11111222,11111222' 
TABS,ioos:station:wmo:42046:1,2013-06-03T15:30:00Z,27.8903,-94.0367,4.0,5.356202013,15.15167109,6.19,'11111222,11111222,11111222' 
TABS,ioos:station:wmo:42046:1,2013-06-03T16:00:00Z,27.8903,-94.0367,4.0,5.173490118,13.5256446,5.95,'11111222,11111222,11111222' 
TABS,ioos:station:wmo:42046:1,2013-06-03T16:30:00Z,27.8903,-94.0367,4.0,4.974866832,21.45896088,6.12,'11111222,11111222,11111222' 
TABS,ioos:station:wmo:42046:1,2013-06-03T17:00:00Z,27.8903,-94.0367,4.0,5.075677295,17.89923752,5.87,'11111222,11111222,11111222' 
TABS,ioos:station:wmo:42046:1,2013-06-03T17:30:00Z,27.8903,-94.0367,4.0,4.475444112,22.32416431,5.37,'11111222,11111222,11111222' 
TABS,ioos:station:wmo:42046:1,2013-06-03T18:00:00Z,27.8903,-94.0367,4.0,5.056767742,19.04381926,6.18,'11111222,11111222,11111222' 
TABS,ioos:station:wmo:42046:1,2013-06-03T18:30:00Z,27.8903,-94.0367,4.0,5.159738365,15.16721994,6.6,'11111222,11111222,11111222' 
TABS,ioos:station:wmo:42046:1,2013-06-03T19:00:00Z,27.8903,-94.0367,4.0,5.111496845,15.31385915,5.96,'11111222,11111222,11111222' 
TABS,ioos:station:wmo:42046:1,2013-06-03T19:30:00Z,27.8903,-94.0367,4.0,5.375872022,6.62244065,6.3,'11111222,11111222,11111222' 
TABS,ioos:station:wmo:42046:1,2013-06-03T20:00:00Z,27.8903,-94.0367,4.0,5.74624225,8.708027384,6.64,'11111222,11111222,11111222' 
TABS,ioos:station:wmo:42046:1,2013-06-03T20:30:00Z,27.8903,-94.0367,4.0,4.973298704,21.09515081,5.93,'11111222,11111222,11111222' 
TABS,ioos:station:wmo:42046:1,2013-06-03T21:00:00Z,27.8903,-94.0367,4.0,4.962579974,20.77199565,5.72,'11111222,11111222,11111222' 
TABS,ioos:station:wmo:42046:1,2013-06-03T21:30:00Z,27.8903,-94.0367,4.0,5.124109679,20.80444143,6.01,'11111222,11111222,11111222' 
TABS,ioos:station:wmo:42046:1,2013-06-03T22:00:00Z,27.8903,-94.0367,4.0,4.978373228,27.64570026,6.08,'11111222,11111222,11111222' 
TABS,ioos:station:wmo:42046:1,2013-06-03T22:30:00Z,27.8903,-94.0367,4.0,4.72671133,35.87557398,5.8,'11111222,11111222,11111222' 
TABS,ioos:station:wmo:42046:1,2013-06-03T23:00:00Z,27.8903,-94.0367,4.0,4.835411048,49.19274313,5.59,'11111222,11111222,11111222' 
TABS,ioos:station:wmo:42046:1,2013-06-03T23:30:00Z,27.8903,-94.0367,4.0,4.293448497,43.58409979,5.28,'11111222,11111222,11111222' 
TABS,ioos:station:wmo:42046:1,2013-06-04T00:00:00Z,27.8903,-94.0367,4.0,4.02236249,53.89898172,4.82,'11111222,11111222,11111222' 
TABS,ioos:station:wmo:42046:1,2013-06-04T00:30:00Z,27.8903,-94.0367,4.0,3.992042084,61.25173202,4.8,'11111222,11111222,11111222' 
TABS,ioos:station:wmo:42046:1,2013-06-04T01:00:00Z,27.8903,-94.0367,4.0,3.973965274,67.8233946,4.56,'11111222,11111222,11111222' 
TABS,ioos:station:wmo:42046:1,2013-06-04T01:30:00Z,27.8903,-94.0367,4.0,4.446301834,81.72370561,5.22,'11111222,11111222,11111222' 
TABS,ioos:station:wmo:42046:1,2013-06-04T02:00:00Z,27.8903,-94.0367,4.0,4.421063221,98.7170035,5.37,'11111222,11111222,11111222' 
TABS,ioos:station:wmo:42046:1,2013-06-04T02:30:00Z,27.8903,-94.0367,4.0,3.455083212,110.3235102,4.07,'11111222,11111222,11111222' 
TABS,ioos:station:wmo:42046:1,2013-06-04T03:00:00Z,27.8903,-94.0367,4.0,3.096126612,105.7424241,3.98,'11111222,11111222,11111222' 
TABS,ioos:station:wmo:42046:1,2013-06-04T03:30:00Z,27.8903,-94.0367,4.0,4.05011111,112.1958285,4.59,'11111222,11111222,11111222' 
TABS,ioos:station:wmo:42046:1,2013-06-04T04:00:00Z,27.8903,-94.0367,4.0,3.534642839,110.537446,4.42,'11111222,11111222,11111222' 
TABS,ioos:station:wmo:42046:1,2013-06-04T04:30:00Z,27.8903,-94.0367,4.0,4.210617532,106.8429953,5.6,'11111222,11111222,11111222' 
TABS,ioos:station:wmo:42046:1,2013-06-04T05:00:00Z,27.8903,-94.0367,4.0,3.856124998,115.1698524,4.55,'11111222,11111222,11111222' 
TABS,ioos:station:wmo:42046:1,2013-06-04T05:30:00Z,27.8903,-94.0367,4.0,3.929198392,110.0956051,4.66,'11111222,11111222,11111222' 
TABS,ioos:station:wmo:42046:1,2013-06-04T06:00:00Z,27.8903,-94.0367,4.0,4.220829302,114.1971624,5.11,'11111222,11111222,11111222' 
TABS,ioos:station:wmo:42046:1,2013-06-04T06:30:00Z,27.8903,-94.0367,4.0,4.056414673,105.441327,4.75,'11111222,11111222,11111222' 
TABS,ioos:station:wmo:42046:1,2013-06-04T07:00:00Z,27.8903,-94.0367,4.0,4.184280105,110.8609235,4.92,'11111222,11111222,11111222' 
TABS,ioos:station:wmo:42046:1,2013-06-04T07:30:00Z,27.8903,-94.0367,4.0,4.367298936,114.6288974,5.34,'11111222,11111222,11111222' 
TABS,ioos:station:wmo:42046:1,2013-06-04T08:00:00Z,27.8903,-94.0367,4.0,4.599489102,122.4810913,5.27,'11111222,11111222,11111222' 
TABS,ioos:station:wmo:42046:1,2013-06-04T08:30:00Z,27.8903,-94.0367,4.0,4.636086712,118.6108137,5.34,'11111222,11111222,11111222' 
TABS,ioos:station:wmo:42046:1,2013-06-04T09:00:00Z,27.8903,-94.0367,4.0,3.466669872,133.130102,4.17,'11111222,11111222,11111222' 
TABS,ioos:station:wmo:42046:1,2013-06-04T09:30:00Z,27.8903,-94.0367,4.0,2.871410803,136.1291478,3.51,'11111222,11111222,11111222' 
TABS,ioos:station:wmo:42046:1,2013-06-04T10:00:00Z,27.8903,-94.0367,4.0,2.621774208,118.2271043,3.03,'11111222,11111222,11111222' 
TABS,ioos:station:wmo:42046:1,2013-06-04T10:30:00Z,27.8903,-94.0367,4.0,2.323488756,96.17720766,3.11,'11111222,11111222,11111222' 
TABS,ioos:station:wmo:42046:1,2013-06-04T11:00:00Z,27.8903,-94.0367,4.0,2.350531855,105.0417152,2.87,'11111222,11111222,11111222' 
TABS,ioos:station:wmo:42046:1,2013-06-04T11:30:00Z,27.8903,-94.0367,4.0,2.086935552,94.67285275,2.56,'11111222,11111222,11111222' 
TABS,ioos:station:wmo:42046:1,2013-06-04T12:00:00Z,27.8903,-94.0367,4.0,2.374468362,81.76712126,3.23,'11111222,11111222,11111222' 
TABS,ioos:station:wmo:42046:1,2013-06-04T12:30:00Z,27.8903,-94.0367,4.0,2.447386361,85.54701786,2.88,'11111222,11111222,11111222' 
TABS,ioos:station:wmo:42046:1,2013-06-04T13:00:00Z,27.8903,-94.0367,4.0,2.797320146,77.40415202,3.48,'11111222,11111222,11111222' 
TABS,ioos:station:wmo:42046:1,2013-06-04T13:30:00Z,27.8903,-94.0367,4.0,2.634274094,86.73530299,3.22,'11111222,11111222,11111222' 
TABS,ioos:station:wmo:42046:1,2013-06-04T14:00:00Z,27.8903,-94.0367,4.0,2.14580987,96.95982671,3.0,'11111222,11111222,11111222' 
TABS,ioos:station:wmo:42046:1,2013-06-04T14:30:00Z,27.8903,-94.0367,4.0,2.902585055,100.9232001,3.67,'11111222,11111222,11111222' 
TABS,ioos:station:wmo:42046:1,2013-06-04T15:00:00Z,27.8903,-94.0367,4.0,3.273912033,109.8190104,4.36,'11111222,11111222,11111222' 
TABS,ioos:station:wmo:42046:1,2013-06-04T15:30:00Z,27.8903,-94.0367,4.0,3.443617284,98.01285423,4.25,'11111222,11111222,11111222' 
TABS,ioos:station:wmo:42046:1,2013-06-04T16:00:00Z,27.8903,-94.0367,4.0,2.716265819,78.31736002,3.39,'11111222,11111222,11111222' 
TABS,ioos:station:wmo:42046:1,2013-06-04T16:30:00Z,27.8903,-94.0367,4.0,3.159003007,65.30050212,3.96,'11111222,11111222,11111222' 
TABS,ioos:station:wmo:42046:1,2013-06-04T17:00:00Z,27.8903,-94.0367,4.0,3.151840732,60.75082114,3.75,'11111222,11111222,11111222' 
TABS,ioos:station:wmo:42046:1,2013-06-04T17:30:00Z,27.8903,-94.0367,4.0,3.355294324,64.9621119,3.75,'11111222,11111222,11111222' 
TABS,ioos:station:wmo:42046:1,2013-06-04T18:00:00Z,27.8903,-94.0367,4.0,3.337573969,45.24246102,3.95,'11111222,11111222,11111222' 
TABS,ioos:station:wmo:42046:1,2013-06-04T18:30:00Z,27.8903,-94.0367,4.0,3.510911563,64.16443138,4.4,'11111222,11111222,11111222' 